W5SDC Weather Reports


Display with metric or nautical units.
time (UTC)temp
F
wind
direction
speed
MPH
gust
MPH
rain 1hr
in
rain 24hr
in
rain mn
in
humidity
%
barometer
mb
20260505183025 81 203 9.0 11.0 0.00 0.00 0.00 78 1009.3
20260505182533 81 213 9.0 12.0 0.00 0.00 0.00 78 1009.3
20260505182020 81 178 9.0 12.0 0.00 0.00 0.00 78 1009.3
20260505181526 81 185 9.0 14.0 0.00 0.00 0.00 79 1009.3
20260505181015 80 201 8.0 12.0 0.00 0.00 0.00 80 1009.3
20260505180602 80 176 11.0 16.0 0.00 0.00 0.00 81 1009.3
20260505180028 79 182 9.0 13.0 0.00 0.00 0.00 81 1009.7
20260505175556 79 211 9.0 13.0 0.00 0.00 0.00 81 1009.7
20260505175023 79 213 7.0 11.0 0.00 0.00 0.00 82 1009.7
20260505174550 78 193 9.0 11.0 0.00 0.00 0.00 83 1009.7
20260505174038 78 188 9.0 13.0 0.00 0.00 0.00 83 1009.7
20260505173524 78 195 9.0 13.0 0.00 0.00 0.00 84 1009.8
20260505173031 78 216 8.0 12.0 0.00 0.00 0.00 84 1009.8
20260505172540 78 202 6.0 11.0 0.00 0.00 0.00 84 1009.8
20260505172026 77 236 7.0 12.0 0.00 0.00 0.00 86 1009.8
20260505171532 76 208 8.0 11.0 0.00 0.00 0.00 86 1009.9
20260505171021 76 226 7.0 10.0 0.00 0.00 0.00 87 1010.0
20260505170527 76 198 8.0 13.0 0.00 0.00 0.00 87 1010.0
20260505170016 76 207 8.0 12.0 0.00 0.00 0.00 87 1009.8
20260505165522 76 184 8.0 11.0 0.00 0.00 0.00 87 1009.8
20260505165029 75 206 9.0 15.0 0.00 0.00 0.00 88 1009.8
20260505164517 75 194 9.0 10.0 0.00 0.00 0.00 88 1009.8
20260505164024 75 189 8.0 11.0 0.00 0.00 0.00 88 1009.8
20260505163530 75 200 8.0 10.0 0.00 0.00 0.00 88 1009.8
20260505163018 75 201 6.0 9.0 0.00 0.00 0.00 89 1009.8
20260505162525 74 202 6.0 11.0 0.00 0.00 0.00 90 1009.8
20260505161540 73 208 7.0 9.0 0.00 0.00 0.00 91 1009.8
20260505161027 74 181 8.0 13.0 0.00 0.00 0.00 91 1009.8
20260505160515 74 204 7.0 10.0 0.00 0.00 0.00 92 1009.8
20260505153024 72 178 5.0 8.0 0.00 0.00 0.00 94 1009.8
20260505152531 72 215 7.0 11.0 0.00 0.00 0.00 94 1009.8
20260505152019 72 246 7.0 11.0 0.00 0.00 0.00 94 1009.8
20260505151526 72 205 6.0 9.0 0.00 0.00 0.00 95 1009.8
20260505151053 72 204 7.0 11.0 0.00 0.00 0.00 95 1009.8
20260505150521 71 219 8.0 11.0 0.00 0.00 0.00 95 1009.8
20260505140527 71 200 8.0 10.0 0.00 0.00 0.00 95 1009.1
20260505125016 70 206 8.0 10.0 0.00 0.00 0.00 96 1008.5
20260505124523 70 208 7.0 13.0 0.00 0.00 0.00 96 1008.4
20260505124049 70 200 8.0 12.0 0.00 0.00 0.00 96 1008.4
20260505123538 70 191 6.0 11.0 0.00 0.00 0.00 96 1008.2
20260505123104 70 190 7.0 9.0 0.00 0.00 0.00 96 1008.2
20260505122531 70 189 8.0 11.0 0.00 0.00 0.00 97 1008.1
20260505122019 70 202 6.0 9.0 0.00 0.00 0.00 97 1008.0
20260505121526 70 186 8.0 12.0 0.00 0.00 0.00 97 1008.0
20260505121032 70 194 7.0 10.0 0.00 0.00 0.00 97 1007.9
20260505120521 70 220 7.0 12.0 0.00 0.00 0.00 97 1007.9
20260505120027 69 208 7.0 11.0 0.00 0.00 0.00 97 1007.6
20260505115515 69 187 10.0 13.0 0.00 0.00 0.00 97 1007.6
20260505115022 69 188 9.0 14.0 0.00 0.00 0.00 97 1007.7
20260505114529 69 179 8.0 11.0 0.00 0.00 0.00 97 1007.8
20260505114017 70 186 8.0 11.0 0.00 0.00 0.00 97 1007.8
20260505113624 70 183 9.0 13.0 0.00 0.00 0.00 97 1007.9
20260505113030 70 185 8.0 13.0 0.00 0.00 0.00 96 1007.9
20260505112518 70 187 7.0 10.0 0.00 0.00 0.00 96 1007.8
20260505112025 70 204 8.0 11.0 0.00 0.00 0.00 96 1007.7
20260505111532 70 209 10.0 14.0 0.00 0.00 0.00 96 1007.8
20260505111020 70 184 8.0 15.0 0.00 0.00 0.00 96 1007.9
20260505110526 70 227 8.0 10.0 0.00 0.00 0.00 96 1007.9
20260505102132 70 199 7.0 9.0 0.00 0.00 0.00 95 1008.0
20260505101540 70 215 8.0 10.0 0.00 0.00 0.00 95 1008.1
20260505101026 70 190 8.0 13.0 0.00 0.00 0.00 95 1008.2
20260505100533 70 188 8.0 11.0 0.00 0.00 0.00 95 1008.2
20260505100021 70 207 7.0 9.0 0.00 0.00 0.00 95 1008.2
20260505095527 70 192 7.0 11.0 0.00 0.00 0.00 95 1008.2
20260505095016 70 176 8.0 14.0 0.00 0.00 0.00 95 1008.2
20260505094543 70 185 6.0 9.0 0.00 0.00 0.00 95 1008.1
20260505094110 70 202 7.0 9.0 0.00 0.00 0.00 95 1008.1
20260505093517 70 179 8.0 12.0 0.00 0.00 0.00 95 1008.3
20260505093024 70 195 7.0 17.0 0.00 0.00 0.00 95 1008.3
20260505092530 70 177 8.0 12.0 0.00 0.00 0.00 95 1008.2
20260505092019 70 179 7.0 10.0 0.00 0.00 0.00 95 1008.2
20260505091526 70 190 6.0 10.0 0.00 0.00 0.00 95 1008.3
20260505091032 70 188 6.0 9.0 0.00 0.00 0.00 95 1008.4
20260505090521 70 202 8.0 11.0 0.00 0.00 0.00 95 1008.4
20260505090027 70 204 6.0 11.0 0.00 0.00 0.00 95 1008.4
20260505085515 70 189 8.0 13.0 0.00 0.00 0.00 94 1008.4
20260505085022 70 201 6.0 10.0 0.00 0.00 0.00 94 1008.5
20260505084529 70 181 10.0 14.0 0.00 0.00 0.00 94 1008.6
20260505084017 70 201 10.0 13.0 0.00 0.00 0.00 94 1008.6
20260505083544 70 196 8.0 15.0 0.00 0.00 0.00 94 1008.6
20260505083030 70 214 9.0 18.0 0.00 0.00 0.00 94 1008.6
20260505082518 70 183 6.0 9.0 0.00 0.00 0.00 94 1008.6
20260505082025 70 190 9.0 17.0 0.00 0.00 0.00 93 1008.6
20260505081532 70 185 8.0 13.0 0.00 0.00 0.00 93 1008.7
20260505081040 70 196 9.0 15.0 0.00 0.00 0.00 93 1008.8
20260505080526 70 192 9.0 16.0 0.00 0.00 0.00 93 1008.8
20260505080033 70 203 10.0 15.0 0.00 0.00 0.00 93 1008.8
20260505075521 70 205 9.0 13.0 0.00 0.00 0.00 93 1008.8
20260505075048 70 183 10.0 17.0 0.00 0.00 0.00 93 1009.0
20260505074516 70 191 11.0 14.0 0.00 0.00 0.00 93 1009.1
20260505074023 70 176 9.0 12.0 0.00 0.00 0.00 93 1009.1
20260505073529 70 197 9.0 14.0 0.00 0.00 0.00 93 1009.1
20260505073018 70 205 7.0 11.0 0.00 0.00 0.00 93 1009.1
20260505072524 70 201 9.0 13.0 0.00 0.00 0.00 93 1009.4
20260505072051 70 169 9.0 11.0 0.00 0.00 0.00 93 1009.5
20260505071519 70 204 9.0 14.0 0.00 0.00 0.00 93 1009.5
20260505071026 70 200 9.0 15.0 0.00 0.00 0.00 93 1009.6
20260505070532 70 192 8.0 11.0 0.00 0.00 0.00 93 1009.6
20260505070021 70 196 11.0 17.0 0.00 0.00 0.00 93 1009.7
20260505065527 70 185 12.0 18.0 0.00 0.00 0.00 93 1009.7
20260505065036 70 206 11.0 15.0 0.00 0.00 0.00 93 1009.7
20260505064522 70 159 10.0 12.0 0.00 0.00 0.00 92 1009.8
20260505064049 70 196 8.0 10.0 0.00 0.00 0.00 92 1009.8
20260505063517 70 194 11.0 15.0 0.00 0.00 0.00 92 1009.8
20260505063024 71 201 10.0 13.0 0.00 0.00 0.00 92 1009.8
20260505062530 71 187 10.0 15.0 0.00 0.00 0.00 92 1010.0
20260505062019 71 197 9.0 15.0 0.00 0.00 0.00 92 1010.0
20260505061525 71 169 11.0 16.0 0.00 0.00 0.00 92 1010.0
20260505061032 71 185 11.0 13.0 0.00 0.00 0.00 91 1010.1
20260505060520 71 193 8.0 15.0 0.00 0.00 0.00 91 1010.1
20260505060027 71 192 11.0 15.0 0.00 0.00 0.00 91 1010.1
20260505055515 71 164 12.0 16.0 0.00 0.00 0.00 91 1010.1
20260505055042 71 184 11.0 14.0 0.00 0.00 0.00 91 1010.1
20260505054528 71 201 10.0 15.0 0.00 0.00 0.00 91 1010.1
20260505054016 71 212 11.0 16.0 0.00 0.00 0.00 91 1010.1
20260505053523 71 198 10.0 17.0 0.00 0.00 0.00 91 1010.1
20260505053030 71 199 9.0 16.0 0.00 0.00 0.00 91 1010.1
20260505052518 71 171 10.0 17.0 0.00 0.00 0.00 91 1010.1
20260505052025 71 196 10.0 15.0 0.00 0.00 0.00 91 1010.1
20260505051531 71 178 9.0 15.0 0.00 0.00 0.00 91 1010.0
20260505051039 71 171 8.0 11.0 0.00 0.00 0.00 90 1009.8
20260505050526 71 159 11.0 15.0 0.00 0.00 0.00 90 1009.8
20260505041519 72 189 9.0 15.0 0.00 0.00 0.00 89 1010.0
20260505041026 72 198 6.0 9.0 0.00 0.00 0.00 88 1010.0
20260505040532 72 176 9.0 13.0 0.00 0.00 0.00 88 1010.0
20260505040021 72 161 10.0 13.0 0.00 0.00 0.00 88 1010.1
20260505035528 73 208 9.0 14.0 0.00 0.00 0.00 88 1010.1
20260505035016 73 197 7.0 11.0 0.00 0.00 0.00 87 1010.1
20260505034522 73 175 7.0 12.0 0.00 0.00 0.00 87 1010.1
20260505034029 73 157 8.0 13.0 0.00 0.00 0.00 87 1010.1
20260505033518 73 184 6.0 8.0 0.00 0.00 0.00 86 1010.1
20260505033024 73 178 5.0 7.0 0.00 0.00 0.00 86 1010.1
20260505032531 73 153 6.0 11.0 0.00 0.00 0.00 86 1010.0
20260505032039 73 156 6.0 9.0 0.00 0.00 0.00 86 1010.0
20260505031546 73 185 8.0 11.0 0.00 0.00 0.00 85 1010.0
20260505031032 73 176 6.0 8.0 0.00 0.00 0.00 85 1010.0
20260505030520 74 176 6.0 8.0 0.00 0.00 0.00 85 1010.0
20260505030027 74 207 5.0 8.0 0.00 0.00 0.00 84 1010.1
20260505025556 74 183 7.0 9.0 0.00 0.00 0.00 84 1010.1
20260505025022 74 163 7.0 11.0 0.00 0.00 0.00 83 1010.0
20260505024529 74 186 7.0 11.0 0.00 0.00 0.00 82 1010.0
20260505024017 74 171 7.0 12.0 0.00 0.00 0.00 82 1010.0
20260505023544 74 175 7.0 11.0 0.00 0.00 0.00 80 1009.8
20260505023030 75 186 5.0 9.0 0.00 0.00 0.00 80 1009.8
20260505022519 75 162 6.0 11.0 0.00 0.00 0.00 79 1009.8
20260505022045 75 184 8.0 11.0 0.00 0.00 0.00 79 1009.8
20260505021532 75 179 7.0 10.0 0.00 0.00 0.00 79 1009.8
20260505021020 75 186 7.0 9.0 0.00 0.00 0.00 78 1009.7
20260505020526 75 184 7.0 9.0 0.00 0.00 0.00 78 1009.7
20260505020015 75 171 7.0 11.0 0.00 0.00 0.00 78 1009.7
20260505015521 75 196 7.0 9.0 0.00 0.00 0.00 77 1009.7
20260505015028 75 188 7.0 10.0 0.00 0.00 0.00 77 1009.7
20260505014516 76 187 7.0 8.0 0.00 0.00 0.00 76 1009.8
20260505014123 76 160 7.0 11.0 0.00 0.00 0.00 76 1009.8
20260505013609 76 188 7.0 11.0 0.00 0.00 0.00 75 1009.7
20260505013018 76 234 5.0 10.0 0.00 0.00 0.00 75 1009.7
20260505012524 76 175 5.0 9.0 0.00 0.00 0.00 74 1009.7
20260505012031 77 189 6.0 9.0 0.00 0.00 0.00 73 1009.7
20260505011539 77 181 6.0 11.0 0.00 0.00 0.00 73 1009.7
20260505011026 77 222 7.0 13.0 0.00 0.00 0.00 72 1009.7
20260505010553 77 186 7.0 10.0 0.00 0.00 0.00 72 1009.7
20260505010021 77 193 7.0 9.0 0.00 0.00 0.00 71 1009.7
20260505005527 78 201 8.0 11.0 0.00 0.00 0.00 71 1009.7
20260505005015 78 186 8.0 13.0 0.00 0.00 0.00 70 1009.7
20260505004522 78 179 9.0 11.0 0.00 0.00 0.00 70 1009.7
20260505004029 78 190 8.0 13.0 0.00 0.00 0.00 69 1009.6
20260505003517 79 207 10.0 13.0 0.00 0.00 0.00 68 1009.6
20260505003024 79 186 9.0 12.0 0.00 0.00 0.00 68 1009.6
20260505002530 79 183 11.0 16.0 0.00 0.00 0.00 68 1009.5
20260505002019 79 224 9.0 13.0 0.00 0.00 0.00 68 1009.5
20260505001525 79 171 9.0 16.0 0.00 0.00 0.00 68 1009.5
20260505001032 79 188 9.0 11.0 0.00 0.00 0.00 68 1009.5
20260505000520 80 196 10.0 13.0 0.00 0.00 0.00 67 1009.5
20260505000027 80 171 10.0 15.0 0.00 0.00 0.00 67 1009.6
20260504235515 80 220 8.0 13.0 0.00 0.00 0.00 67 1009.6
20260504235022 80 236 11.0 15.0 0.00 0.00 0.00 67 1009.7
20260504234528 81 199 10.0 15.0 0.00 0.00 0.00 66 1009.8
20260504234037 81 199 11.0 20.0 0.00 0.00 0.00 67 1009.8
20260504233523 80 174 12.0 18.0 0.00 0.00 0.00 67 1009.8
20260504233030 80 186 9.0 16.0 0.00 0.00 0.00 66 1009.8
20260504232518 81 186 11.0 17.0 0.00 0.00 0.00 66 1009.8
20260504232045 81 166 9.0 17.0 0.00 0.00 0.00 66 1009.8
20260504231531 81 183 11.0 13.0 0.00 0.00 0.00 66 1010.0
20260504231020 81 177 12.0 16.0 0.00 0.00 0.00 66 1010.1
20260504230527 81 184 12.0 17.0 0.00 0.00 0.00 65 1010.1
20260504230053 82 197 10.0 13.0 0.00 0.00 0.00 64 1010.2
20260504225546 82 201 13.0 19.0 0.00 0.00 0.00 64 1010.2
20260504225048 82 167 12.0 18.0 0.00 0.00 0.00 64 1010.4
20260504224536 82 195 9.0 14.0 0.00 0.00 0.00 64 1010.5
20260504224023 82 195 12.0 16.0 0.00 0.00 0.00 63 1010.4
20260504223529 82 187 8.0 13.0 0.00 0.00 0.00 63 1010.2
20260504223017 83 195 12.0 18.0 0.00 0.00 0.00 63 1010.2
20260504222524 83 173 9.0 14.0 0.00 0.00 0.00 62 1010.3
20260504222031 84 188 12.0 16.0 0.00 0.00 0.00 63 1010.4
20260504221519 83 169 9.0 11.0 0.00 0.00 0.00 64 1010.4
20260504221025 83 218 10.0 14.0 0.00 0.00 0.00 64 1010.5
20260504220532 84 184 9.0 16.0 0.00 0.00 0.00 63 1010.5
20260504220020 83 164 10.0 14.0 0.00 0.00 0.00 63 1010.5
20260504215547 83 170 12.0 14.0 0.00 0.00 0.00 63 1010.5
20260504215015 84 230 10.0 17.0 0.00 0.00 0.00 63 1010.6
20260504214522 83 175 10.0 15.0 0.00 0.00 0.00 63 1010.6
20260504214028 82 175 11.0 15.0 0.00 0.00 0.00 64 1010.7
20260504213517 83 170 9.0 13.0 0.00 0.00 0.00 63 1010.9
20260504213044 83 219 10.0 15.0 0.00 0.00 0.00 63 1010.9
20260504212550 83 198 10.0 15.0 0.00 0.00 0.00 62 1011.1
20260504212018 83 166 10.0 14.0 0.00 0.00 0.00 63 1011.1
20260504211525 83 193 11.0 16.0 0.00 0.00 0.00 63 1011.2
20260504211032 84 173 10.0 14.0 0.00 0.00 0.00 63 1011.4
20260504210520 83 185 9.0 14.0 0.00 0.00 0.00 63 1011.4
20260504210026 83 185 8.0 11.0 0.00 0.00 0.00 64 1011.5
20260504205515 82 194 11.0 15.0 0.00 0.00 0.00 64 1011.5
20260504205021 82 200 8.0 12.0 0.00 0.00 0.00 65 1011.6
20260504204528 81 187 10.0 13.0 0.00 0.00 0.00 65 1011.7
20260504204016 81 201 9.0 12.0 0.00 0.00 0.00 65 1011.8
20260504203523 81 192 10.0 13.0 0.00 0.00 0.00 65 1012.0
20260504203050 81 214 11.0 14.0 0.00 0.00 0.00 65 1012.0
20260504202518 81 216 9.0 17.0 0.00 0.00 0.00 66 1012.1
20260504202044 81 183 8.0 14.0 0.00 0.00 0.00 65 1012.2
20260504201531 83 202 9.0 13.0 0.00 0.00 0.00 64 1012.2
20260504201019 82 210 9.0 11.0 0.00 0.00 0.00 64 1012.4
20260504200526 82 166 9.0 12.0 0.00 0.00 0.00 64 1012.4
20260504200032 82 185 9.0 12.0 0.00 0.00 0.00 65 1012.7
20260504195521 81 177 9.0 15.0 0.00 0.00 0.00 65 1012.7
20260504195027 81 168 10.0 15.0 0.00 0.00 0.00 64 1012.7
20260504194516 80 202 8.0 12.0 0.00 0.00 0.00 66 1012.7
20260504194022 80 142 9.0 12.0 0.00 0.00 0.00 66 1012.8
20260504193529 81 188 9.0 12.0 0.00 0.00 0.00 65 1012.9
20260504193017 81 206 10.0 19.0 0.00 0.00 0.00 65 1012.9
20260504192524 81 192 9.0 15.0 0.00 0.00 0.00 65 1013.0
20260504192031 80 157 10.0 14.0 0.00 0.00 0.00 66 1013.1
20260504191519 80 192 10.0 17.0 0.00 0.00 0.00 67 1013.2
20260504191026 81 209 11.0 13.0 0.00 0.00 0.00 65 1013.4
20260504190532 81 200 10.0 15.0 0.00 0.00 0.00 66 1013.4
20260504190020 80 230 9.0 12.0 0.00 0.00 0.00 66 1013.4
20260504185527 79 244 9.0 12.0 0.00 0.00 0.00 68 1013.4
20260504185015 79 177 10.0 15.0 0.00 0.00 0.00 67 1013.5
20260504184522 79 233 10.0 14.0 0.00 0.00 0.00 68 1013.6
20260504184028 79 167 11.0 14.0 0.00 0.00 0.00 67 1013.7
20260504183517 79 190 12.0 18.0 0.00 0.00 0.00 67 1014.0